Joint Base Elmendorf-Richardson, AK

1:13 PM AKST on December 06, 2016 (GMT -0900)
Elmendorf Air Force Base

Weather History for PAED - January, 2013

Change the Weather History Date:

Sunday, January 6, 2013

  Actual Average Record
Temperature  
Mean Temperature 26 °F -  
Max Temperature 30 °F 18 °F 40 °F (1993)
Min Temperature 21 °F 4 °F -29 °F (1975)
Degree Days  
Heating Degree Days 40    
Moisture  
Dew Point 20 °F    
Average Humidity 84    
Maximum Humidity 91    
Minimum Humidity 74    
Precipitation  
Precipitation 0.00 in - - ()
Sea Level Pressure  
Sea Level Pressure 29.23 in    
Wind  
Wind Speed 4 mph (NE)    
Max Wind Speed 14 mph    
Max Gust Speed -    
Visibility 10 miles    
Events      
Averages and records for this station are not official NWS values.
T = Trace of Precipitation, MM = Missing Value Source: NWS Daily Summary

Daily Weather History Graph

Daily Weather History Graph

Search for Another Location

Airport or City:

Trip Planner

Search our weather history database for the weather conditions in past years. The results will help you decide how hot, cold, wet, or windy it might be!

Date:

Astronomy

Jan. 06, 2013 Rise Set
Actual Time 10:09 AM AKST 4:02 PM AKST
Civil Twilight 9:09 AM AKST 5:01 PM AKST
Nautical Twilight 8:11 AM AKST 5:59 PM AKST
Astronomical Twilight 7:18 AM AKST 6:52 PM AKST
Moon 3:53 AM AKST 12:11 PM AKST
Length of Visible Light 7h 51m
Length of Day
5h 52m
Waning Crescent, 31% of the Moon is Illuminated
Jan 6
Waning Crescent
Jan 11
New
Jan 18
First Quarter
Jan 26
Full
Feb 3
Last Quarter

Hourly Weather History & Observations

Time (AKST) Temp. Windchill Dew Point Humidity Pressure Visibility Wind Dir Wind Speed Gust Speed Precip Events Conditions
12:55 AM 30.6 °F 21.8 °F 23.0 °F 74% 29.37 in 10.0 mi NE 10.4 mph - N/A   Clear
1:55 AM 26.8 °F - 22.1 °F 83% 29.37 in 10.0 mi Calm Calm - N/A   Partly Cloudy
2:55 AM 28.6 °F 22.4 °F 22.8 °F 79% 29.37 in 10.0 mi ENE 5.8 mph - N/A   Mostly Cloudy
3:55 AM 27.0 °F - 22.3 °F 83% 29.37 in 10.0 mi Calm Calm - N/A   Scattered Clouds
4:55 AM 25.3 °F - 21.2 °F 84% 29.37 in 10.0 mi Calm Calm - N/A   Mostly Cloudy
5:55 AM 23.5 °F 17.6 °F 20.3 °F 87% 29.35 in 10.0 mi NE 4.6 mph - N/A   Overcast
6:55 AM 22.3 °F - 19.0 °F 87% 29.35 in 10.0 mi Calm Calm - N/A   Mostly Cloudy
7:55 AM 21.0 °F 13.4 °F 18.7 °F 91% 29.33 in 10.0 mi East 5.8 mph - N/A   Clear
8:55 AM 21.4 °F 16.6 °F 19.0 °F 91% 29.32 in 10.0 mi North 3.5 mph - N/A   Partly Cloudy
9:55 AM 23.2 °F - 19.6 °F 86% 29.30 in 10.0 mi Calm Calm - N/A   Scattered Clouds
10:55 AM 21.2 °F - 18.5 °F 89% 29.30 in 10.0 mi Calm Calm - N/A   Clear
11:55 AM 21.0 °F - 18.5 °F 90% 29.28 in 10.0 mi Calm Calm - N/A   Clear
12:55 PM 22.6 °F 16.5 °F 19.9 °F 89% 29.26 in 10.0 mi East 4.6 mph - N/A   Clear
1:55 PM 22.1 °F - 18.7 °F 87% 29.24 in 10.0 mi Calm Calm - N/A   Clear
2:55 PM 26.2 °F 22.1 °F 21.7 °F 83% 29.21 in 10.0 mi Variable 3.5 mph - N/A   Clear
3:55 PM 27.9 °F 17.3 °F 21.7 °F 78% 29.18 in 10.0 mi NE 12.7 mph - N/A   Partly Cloudy
4:55 PM 26.8 °F - 21.6 °F 81% 29.16 in 10.0 mi Calm Calm - N/A   Partly Cloudy
5:55 PM 28.0 °F - 20.8 °F 74% 29.12 in 10.0 mi Calm Calm - N/A   Partly Cloudy
6:55 PM 25.7 °F - 20.5 °F 81% 29.10 in 10.0 mi Calm Calm - N/A   Clear
7:55 PM 22.5 °F - 19.4 °F 88% 29.07 in 10.0 mi Calm Calm - N/A   Clear
8:55 PM 21.6 °F - 18.9 °F 89% 29.04 in 10.0 mi Calm Calm - N/A   Clear
9:55 PM 23.4 °F 16.2 °F 19.2 °F 84% 29.04 in 10.0 mi NNW 5.8 mph - N/A   Mostly Cloudy
10:55 PM 21.9 °F 12.5 °F 18.7 °F 87% 29.03 in 10.0 mi ENE 8.1 mph - N/A   Partly Cloudy
11:55 PM 28.9 °F 18.2 °F 21.7 °F 74% 29.04 in 10.0 mi NNE 13.8 mph - N/A   Scattered Clouds